EN

Hourly Weather Yerevan

Today, 24 July, Saturday

Time Temperature Precipitation Wind Pressure Humidity
00:00 +27°C° 0 mm 3 mps 683 mmHg 47%
01:00 +27°C° 0 mm 3 mps 683 mmHg 48%
02:00 +27°C° 0 mm 3 mps 683 mmHg 48%
03:00 +26°C° 0 mm 3 mps 683 mmHg 48%
04:00 +26°C° 0 mm 3 mps 683 mmHg 49%
05:00 +26°C° 0 mm 3 mps 684 mmHg 49%
06:00 +26°C° 0 mm 2 mps 684 mmHg 49%
07:00 +27°C° 0 mm 2 mps 684 mmHg 46%
08:00 +29°C° 0 mm 2 mps 684 mmHg 42%
09:00 +31°C° 0 mm 2 mps 684 mmHg 39%
10:00 +32°C° 0 mm 2 mps 684 mmHg 35%
11:00 +35°C° 0 mm 2 mps 684 mmHg 31%
12:00 +36°C° 0 mm 2 mps 684 mmHg 28%
13:00 +37°C° 0 mm 2 mps 683 mmHg 26%
14:00 +38°C° 0 mm 3 mps 683 mmHg 24%
15:00 +39°C° 0 mm 3 mps 683 mmHg 22%
16:00 +40°C° 0 mm 4 mps 682 mmHg 24%
17:00 +38°C° 0 mm 4 mps 682 mmHg 26%
18:00 +37°C° 0 mm 5 mps 682 mmHg 29%
19:00 +34°C° 0.2 mm 4 mps 683 mmHg 38%
20:00 +30°C° 0.2 mm 4 mps 683 mmHg 47%
21:00 +27°C° 0.2 mm 3 mps 684 mmHg 56%
22:00 +26°C° 0.1 mm 3 mps 684 mmHg 57%
23:00 +26°C° 0.1 mm 3 mps 685 mmHg 59%

Tomorrow, 25 July, Sunday

Time Temperature Precipitation Wind Pressure Humidity
00:00 +25°C° 0.1 mm 3 mps 685 mmHg 61%
01:00 +25°C° 0 mm 3 mps 685 mmHg 63%
02:00 +24°C° 0 mm 2 mps 686 mmHg 64%
03:00 +24°C° 0 mm 2 mps 686 mmHg 66%
04:00 +24°C° 0 mm 2 mps 686 mmHg 64%
05:00 +24°C° 0 mm 2 mps 687 mmHg 63%
06:00 +25°C° 0 mm 1 mps 687 mmHg 61%
07:00 +27°C° 0 mm 1 mps 687 mmHg 55%
08:00 +29°C° 0 mm 1 mps 688 mmHg 49%
09:00 +31°C° 0 mm 1 mps 688 mmHg 43%
10:00 +32°C° 0 mm 1 mps 688 mmHg 39%
11:00 +35°C° 0 mm 2 mps 688 mmHg 34%
12:00 +37°C° 0 mm 2 mps 687 mmHg 29%
13:00 +38°C° 0 mm 2 mps 687 mmHg 26%
14:00 +39°C° 0 mm 3 mps 687 mmHg 23%
15:00 +40°C° 0 mm 3 mps 686 mmHg 20%
16:00 +41°C° 0 mm 4 mps 686 mmHg 22%
17:00 +40°C° 0 mm 4 mps 686 mmHg 24%
18:00 +39°C° 0 mm 5 mps 686 mmHg 25%
19:00 +36°C° 0 mm 5 mps 686 mmHg 32%
20:00 +33°C° 0 mm 4 mps 686 mmHg 38%
21:00 +29°C° 0 mm 4 mps 687 mmHg 45%
22:00 +28°C° 0 mm 3 mps 687 mmHg 47%
23:00 +28°C° 0 mm 3 mps 687 mmHg 50%

Day after tomorrow, 26 July, Monday

Time Temperature Precipitation Wind Pressure Humidity
00:00 +27°C° 0 mm 2 mps 687 mmHg 53%
01:00 +26°C° 0 mm 2 mps 688 mmHg 55%
02:00 +26°C° 0 mm 2 mps 688 mmHg 56%
03:00 +25°C° 0 mm 2 mps 688 mmHg 58%
04:00 +25°C° 0 mm 2 mps 688 mmHg 57%
05:00 +26°C° 0 mm 2 mps 689 mmHg 56%
06:00 +26°C° 0 mm 1 mps 689 mmHg 55%
07:00 +28°C° 0 mm 1 mps 689 mmHg 49%
08:00 +30°C° 0 mm 1 mps 689 mmHg 43%
09:00 +32°C° 0 mm 1 mps 690 mmHg 37%
10:00 +34°C° 0 mm 1 mps 689 mmHg 33%
11:00 +36°C° 0 mm 1 mps 689 mmHg 29%
12:00 +38°C° 0 mm 2 mps 689 mmHg 25%
13:00 +39°C° 0 mm 2 mps 689 mmHg 23%
14:00 +41°C° 0 mm 2 mps 688 mmHg 20%
15:00 +42°C° 0 mm 2 mps 687 mmHg 18%
16:00 +42°C° 0 mm 2 mps 687 mmHg 17%
17:00 +42°C° 0 mm 2 mps 687 mmHg 17%
18:00 +41°C° 0 mm 2 mps 687 mmHg 16%
19:00 +39°C° 0 mm 3 mps 686 mmHg 23%
20:00 +36°C° 0 mm 4 mps 686 mmHg 30%
21:00 +33°C° 0 mm 4 mps 686 mmHg 37%
22:00 +32°C° 0 mm 4 mps 687 mmHg 39%
23:00 +30°C° 0 mm 3 mps 687 mmHg 41%

27 July, Tuesday

Time Temperature Precipitation Wind Pressure Humidity
00:00 +29°C° 0 mm 2 mps 687 mmHg 43%
01:00 +28°C° 0 mm 2 mps 687 mmHg 45%
02:00 +27°C° 0 mm 2 mps 687 mmHg 47%
03:00 +27°C° 0 mm 2 mps 687 mmHg 49%
04:00 +27°C° 0 mm 2 mps 687 mmHg 49%
05:00 +27°C° 0 mm 2 mps 688 mmHg 48%
06:00 +27°C° 0 mm 2 mps 688 mmHg 47%
07:00 +30°C° 0 mm 1 mps 688 mmHg 41%
08:00 +32°C° 0 mm 1 mps 688 mmHg 36%
09:00 +34°C° 0 mm 1 mps 688 mmHg 30%
10:00 +36°C° 0 mm 1 mps 688 mmHg 26%
11:00 +39°C° 0 mm 2 mps 687 mmHg 21%
12:00 +41°C° 0 mm 2 mps 687 mmHg 17%
13:00 +38°C° 0.1 mm 3 mps 686 mmHg 23%
14:00 +35°C° 0.1 mm 4 mps 686 mmHg 29%
15:00 +33°C° 0.1 mm 5 mps 685 mmHg 35%
16:00 +33°C° 0.1 mm 5 mps 686 mmHg 34%
17:00 +34°C° 0.1 mm 5 mps 686 mmHg 34%
18:00 +34°C° 0.1 mm 5 mps 686 mmHg 33%
19:00 +32°C° 0 mm 4 mps 686 mmHg 39%
20:00 +29°C° 0 mm 4 mps 687 mmHg 44%
21:00 +27°C° 0 mm 4 mps 687 mmHg 50%
22:00 +26°C° 0 mm 4 mps 687 mmHg 51%
23:00 +26°C° 0 mm 3 mps 687 mmHg 53%

28 July, Wednesday

Time Temperature Precipitation Wind Pressure Humidity
00:00 +25°C° 0 mm 3 mps 687 mmHg 54%
01:00 +25°C° 0 mm 3 mps 687 mmHg 55%
02:00 +24°C° 0 mm 3 mps 687 mmHg 56%
03:00 +24°C° 0 mm 3 mps 686 mmHg 57%
04:00 +24°C° 0 mm 3 mps 687 mmHg 56%
05:00 +24°C° 0 mm 3 mps 687 mmHg 55%
06:00 +24°C° 0 mm 3 mps 687 mmHg 55%
07:00 +26°C° 0 mm 2 mps 687 mmHg 49%
08:00 +28°C° 0 mm 2 mps 688 mmHg 44%
09:00 +30°C° 0 mm 2 mps 688 mmHg 38%
10:00 +31°C° 0 mm 2 mps 687 mmHg 34%
11:00 +34°C° 0 mm 2 mps 687 mmHg 31%
12:00 +35°C° 0 mm 2 mps 687 mmHg 27%
13:00 +36°C° 0 mm 3 mps 686 mmHg 25%
14:00 +37°C° 0 mm 4 mps 686 mmHg 24%
15:00 +39°C° 0 mm 5 mps 685 mmHg 22%
16:00 +38°C° 0 mm 6 mps 685 mmHg 25%
17:00 +35°C° 0 mm 7 mps 685 mmHg 27%
18:00 +34°C° 0 mm 9 mps 685 mmHg 30%
19:00 +32°C° 0 mm 7 mps 686 mmHg 35%
20:00 +29°C° 0 mm 6 mps 686 mmHg 40%
21:00 +27°C° 0 mm 4 mps 687 mmHg 45%
22:00 +26°C° 0 mm 4 mps 687 mmHg 47%
23:00 +25°C° 0 mm 3 mps 687 mmHg 50%

29 July, Thursday

Time Temperature Precipitation Wind Pressure Humidity
00:00 +25°C° 0 mm 3 mps 687 mmHg 53%
01:00 +24°C° 0 mm 2 mps 687 mmHg 55%
02:00 +23°C° 0 mm 2 mps 687 mmHg 58%
03:00 +23°C° 0 mm 2 mps 687 mmHg 60%
04:00 +23°C° 0 mm 2 mps 687 mmHg 59%
05:00 +23°C° 0 mm 2 mps 687 mmHg 58%
06:00 +23°C° 0 mm 2 mps 688 mmHg 57%
07:00 +25°C° 0 mm 2 mps 688 mmHg 51%
08:00 +27°C° 0 mm 1 mps 688 mmHg 44%
09:00 +29°C° 0 mm 1 mps 689 mmHg 38%
10:00 +31°C° 0 mm 1 mps 688 mmHg 34%
11:00 +32°C° 0 mm 2 mps 688 mmHg 30%
12:00 +34°C° 0 mm 2 mps 688 mmHg 27%
13:00 +35°C° 0 mm 3 mps 687 mmHg 25%
14:00 +36°C° 0 mm 4 mps 687 mmHg 24%
15:00 +36°C° 0 mm 5 mps 687 mmHg 22%
16:00 +35°C° 0 mm 6 mps 687 mmHg 24%
17:00 +34°C° 0 mm 6 mps 686 mmHg 27%
18:00 +33°C° 0 mm 7 mps 686 mmHg 29%
19:00 +30°C° 0 mm 6 mps 687 mmHg 34%
20:00 +28°C° 0 mm 5 mps 687 mmHg 40%
21:00 +26°C° 0 mm 4 mps 688 mmHg 45%
22:00 +25°C° 0 mm 3 mps 688 mmHg 47%
23:00 +24°C° 0 mm 2 mps 688 mmHg 49%
Show more

We Need Your Consent

Meteoprog and our Service Providers may store and access personal data such as cookies, device identifiers or other similar technologies on your device and process such data to personalise content and ads, as well as provide social media features and to analyse the traffic.

  • Store and/or access information on your device

    Cookies, device identifiers or other information can be stored or accessed on your device for the purposes indicated above.

  • Personalised ads and content, ad and content measurement, audience insights, and products development

    Ads and content can be personalised based on a profile. More data can be added to better personalise ads and content. Ad and content performance can be measured. Insights about the audience who saw the ads and content can be derived. Such data can be used to develop or improve user’s experience, systems and software.

By clicking ‘I Agree’ you will allow the use of indicated cookies, device identifiers, web beacons or other similar technologies. Your settings can be changed in the browser on your device.

For certain purposes, legitimate interests may be relied on, rather than consent. You can read more about this in our Privacy and Cookie Policy.